Wind_Speed
25 26 28 29 30 31 31 32 33 33 35 36 37 37 37 37 37 37 36 36 36 35 35 35 36 36 35 36 36 35 35 35 35 34 34 35 34 35 35 34 34 34 33
25 26 26 27 27 28 29 31 31 31 32 34 34 35 36 36 36 36 36 37 37 36 35 34 35 35 34 34 34 34 34 34 34 33 34 33 33 34 33 33 33 33 33
24 24 24 24 25 26 27 29 30 31 32 33 33 34 35 35 35 36 36 36 36 36 34 34 34 34 33 33 33 33 33 34 33 33 33 33 32 32 31 31 31 31 31
23 23 24 24 25 26 26 28 30 31 31 32 32 33 34 35 35 35 35 35 36 35 34 33 33 34 33 33 32 32 32 32 32 32 32 32 32 32 30 30 29 29 29
24 23 24 25 25 26 27 28 29 30 30 31 32 33 33 34 34 35 35 34 34 35 34 33 32 32 32 31 31 31 32 31 31 32 32 31 31 31 30 30 29 28 28
25 24 24 24 25 26 27 28 29 29 30 32 32 32 32 33 33 33 34 34 33 34 33 32 31 30 30 31 31 31 31 32 32 32 31 31 30 30 30 30 29 29 30
25 25 25 25 26 27 28 28 29 30 31 31 31 32 32 33 33 33 33 33 33 33 32 31 31 30 29 30 30 31 31 32 32 31 31 31 30 29 29 29 28 29 30
26 26 26 26 26 27 28 29 30 31 31 31 31 32 32 32 31 32 32 31 31 31 30 30 30 30 30 29 30 30 30 31 31 32 31 31 30 29 28 28 28 28 29
26 26 25 25 26 26 27 28 29 30 31 31 31 31 30 29 29 29 29 29 29 29 29 29 29 29 28 28 29 29 29 29 31 32 31 31 31 29 28 28 29 29 29
24 24 25 26 27 27 28 28 28 28 28 28 27 26 25 25 25 26 26 26 26 26 26 26 27 28 27 27 28 28 28 28 28 29 30 30 30 29 28 27 28 28 28
23 23 24 25 26 27 27 27 27 26 26 25 25 24 24 24 24 24 24 24 25 25 24 24 25 26 27 28 28 28 27 27 28 28 28 29 29 28 26 26 27 27 27
22 22 23 24 25 25 25 25 25 25 24 25 24 24 24 24 23 23 23 23 25 25 25 25 25 26 26 26 27 27 27 27 27 27 27 26 26 26 24 25 25 25 25
21 22 23 24 24 24 24 24 24 24 23 23 23 23 22 22 22 22 22 23 24 25 25 25 25 26 26 26 26 26 26 25 25 26 26 24 23 23 23 23 23 22 22
21 22 22 22 23 23 24 23 23 22 22 21 21 21 21 21 21 22 22 23 23 24 24 25 25 26 26 26 25 25 24 24 24 24 24 23 23 22 21 21 21 21 22
20 20 20 21 21 21 22 22 21 21 20 20 19 20 20 21 22 23 22 22 23 24 24 24 24 25 25 25 24 23 23 23 23 23 22 22 21 21 20 20 20 20 20
19 19 20 19 19 19 19 20 20 19 19 19 19 19 19 19 20 20 21 20 21 21 21 21 22 22 22 22 21 22 22 22 22 21 20 20 20 20 20 19 19 19 20
19 19 19 18 18 17 18 18 18 18 19 19 19 20 20 19 19 20 20 19 20 20 20 20 20 20 20 20 21 21 21 21 20 20 20 19 19 19 19 19 18 18 19
19 19 18 18 17 18 18 18 18 18 18 18 19 19 19 19 19 19 19 19 19 19 19 19 19 19 19 19 19 19 19 19 19 19 19 19 18 17 17 17 18 18 18
20 20 19 18 18 18 18 18 18 18 18 18 18 19 19 20 19 18 18 19 19 18 18 18 19 19 19 19 19 19 19 19 19 18 18 18 17 17 17 18 18 17 17
20 19 19 18 18 18 18 18 18 17 17 18 18 19 19 19 19 19 19 19 19 18 18 18 18 19 19 19 19 19 19 18 17 17 17 18 18 18 18 17 17 17 17
18 18 18 18 17 17 17 17 16 16 16 17 17 18 18 18 18 18 18 18 17 17 18 18 19 20 19 19 19 19 18 18 18 18 18 18 18 18 18 18 18 18 18
19 19 18 18 17 17 17 17 16 16 16 16 17 18 18 18 18 18 18 18 17 18 18 19 19 19 19 19 19 19 18 18 18 19 19 19 18 19 18 18 19 19 19
19 19 19 19 19 18 18 18 17 17 17 18 18 18 18 18 17 17 17 17 17 18 18 18 18 19 19 19 19 19 19 19 19 19 19 19 19 19 19 19 19 19 19
21 21 21 21 20 20 20 19 19 19 18 18 18 17 17 17 17 17 17 17 17 17 17 17 18 18 18 18 19 19 19 19 19 19 19 19 19 19 19 19 19 18 18
21 21 21 21 22 22 21 20 20 20 19 18 17 17 17 17 17 17 17 17 17 17 17 17 17 17 17 17 18 18 19 19 19 19 19 20 20 20 19 19 19 19 19
22 22 22 22 21 21 20 20 20 19 18 18 18 18 17 17 17 17 17 17 17 17 17 17 17 17 17 18 18 19 19 19 19 19 19 19 20 20 20 20 20 19 19
Wind_Direction
273 274 272 268 266 264 263 263 264 264 263 264 262 260 260 263 263 264 264 265 266 266 268 268 268 268 268 269 269 270 270 272 273 270 268 269 270 272 273 275 276 274 272
273 273 272 269 267 265 265 265 266 266 265 266 263 261 261 262 264 264 265 267 268 269 269 269 269 267 267 267 268 267 270 272 271 267 266 268 271 272 275 276 276 274 272
274 274 273 270 269 269 269 268 268 268 267 266 264 263 263 264 266 266 267 268 269 270 269 269 267 267 265 265 266 267 268 269 269 268 267 268 271 274 274 276 277 274 272
275 274 272 270 270 273 272 270 269 269 269 268 267 267 267 267 267 266 267 268 268 269 269 270 267 266 264 263 265 266 267 268 268 268 268 269 271 273 274 275 276 275 273
275 274 273 273 272 274 275 274 273 272 271 270 269 268 267 268 268 266 265 267 268 268 268 268 267 266 263 262 265 266 266 267 268 268 269 271 272 273 274 276 276 274 272
274 274 273 273 274 275 277 277 276 274 272 271 270 270 270 269 267 267 266 267 267 268 267 266 266 265 262 263 266 266 266 266 267 269 270 271 274 274 274 276 276 273 271
275 275 274 275 276 276 277 278 277 276 274 272 272 273 273 271 269 267 266 267 267 267 265 265 265 264 264 264 265 267 268 266 267 268 269 271 273 274 274 274 272 271 272
275 275 275 275 277 277 278 277 278 276 274 275 275 277 277 274 270 268 267 267 266 266 265 264 263 264 265 266 267 267 267 266 265 265 266 268 270 272 272 272 270 273 273
276 276 275 276 277 278 279 279 278 276 275 275 275 277 276 273 269 267 266 266 265 264 265 264 263 264 264 266 267 268 268 267 265 264 265 267 268 270 269 270 272 272 272
279 278 278 277 277 278 279 280 280 277 275 275 275 275 274 272 268 266 266 267 265 264 264 263 261 261 260 262 265 267 268 267 266 266 267 268 269 270 270 269 270 271 269
280 280 281 281 280 280 280 279 280 279 275 274 274 271 272 271 268 266 268 268 265 264 265 264 261 260 260 262 264 266 269 270 269 268 269 269 269 270 269 268 271 272 271
284 284 284 285 285 284 284 283 281 281 278 274 274 271 270 270 270 267 269 268 267 266 265 264 262 259 261 261 264 266 269 270 270 269 270 271 270 270 268 267 270 272 273
286 287 286 286 286 286 285 285 284 280 278 277 274 272 270 270 270 269 269 267 267 267 264 263 262 259 260 262 264 265 267 269 270 270 269 271 272 273 268 266 268 271 274
287 287 287 287 287 287 287 287 284 279 278 277 277 273 271 269 269 269 269 268 266 267 265 263 262 260 260 262 263 264 265 267 270 271 271 272 273 272 269 267 269 271 273
289 287 288 290 291 288 286 286 285 282 279 277 277 273 269 267 267 267 267 267 268 269 266 264 264 261 260 261 262 262 264 266 269 269 269 271 270 270 269 269 270 272 272
292 288 288 291 293 291 287 285 285 284 282 277 275 274 272 270 268 265 265 265 268 268 265 264 262 260 259 258 259 261 264 266 266 265 267 268 268 269 270 271 271 273 274
290 290 291 292 292 290 289 287 284 282 279 276 273 274 275 272 270 266 264 263 266 267 264 261 259 257 256 257 258 261 262 263 263 264 265 265 265 269 273 272 272 274 276
288 288 288 288 287 286 286 286 284 280 276 274 273 273 274 275 274 270 266 267 268 270 265 259 255 255 256 258 259 260 261 263 264 264 263 262 264 269 273 274 273 275 276
285 286 282 281 281 282 283 283 282 281 279 276 273 273 276 279 278 275 270 269 268 267 263 259 255 254 254 254 256 258 261 263 263 262 262 263 266 270 272 273 274 275 277
285 286 284 280 279 278 280 282 283 283 281 281 280 278 279 278 277 274 270 268 267 265 261 258 255 255 256 256 256 259 261 261 261 262 264 265 267 269 270 270 271 275 278
287 286 285 284 282 280 281 281 282 283 283 283 282 282 282 280 278 275 271 269 267 265 261 258 257 256 257 257 257 258 260 260 262 264 265 267 268 269 269 270 271 273 275
287 286 286 285 284 283 283 282 280 281 283 284 284 284 285 284 281 277 274 272 268 265 262 262 260 258 258 257 257 258 259 260 263 264 265 266 268 269 270 270 270 271 272
289 288 288 285 283 282 281 279 278 279 282 284 285 286 286 285 283 279 276 273 270 267 264 261 259 259 260 259 259 258 259 260 262 263 264 266 268 269 269 270 271 272 272
289 287 287 286 284 282 280 276 276 278 281 282 283 283 282 280 280 279 277 275 271 268 264 261 259 259 259 259 258 258 259 261 262 263 264 267 268 268 270 271 271 271 270
289 288 286 285 283 281 278 275 274 275 277 279 279 280 279 279 279 279 278 275 270 265 262 261 261 261 260 259 259 258 260 262 263 264 264 265 267 268 270 271 270 270 267
288 288 288 286 284 280 277 273 272 273 275 276 277 277 277 278 280 281 279 274 270 267 265 263 262 263 262 262 261 261 262 263 263 265 266 267 268 268 269 269 269 267 265
Height
5613 5612 5612 5611 5611 5611 5611 5611 5611 5612 5612 5613 5613 5614 5615 5616 5617 5617 5618 5618 5618 5618 5618 5618 5618 5618 5617 5617 5617 5617 5618 5619 5619 5620 5620 5620 5619 5619 5618 5617 5616 5615 5615
5606 5605 5604 5603 5603 5603 5603 5603 5603 5603 5603 5603 5603 5604 5605 5606 5607 5608 5608 5608 5608 5608 5608 5608 5608 5608 5608 5608 5608 5608 5609 5610 5611 5611 5611 5611 5611 5610 5610 5609 5608 5607 5607
5598 5598 5597 5596 5595 5595 5595 5594 5594 5594 5594 5594 5594 5595 5596 5597 5597 5598 5598 5598 5598 5599 5599 5599 5599 5599 5599 5599 5599 5600 5600 5601 5601 5602 5602 5603 5603 5602 5602 5601 5599 5598 5598
5591 5591 5590 5589 5588 5588 5587 5586 5586 5585 5585 5585 5585 5586 5586 5587 5587 5587 5588 5588 5588 5589 5589 5589 5589 5589 5590 5590 5591 5591 5592 5592 5593 5593 5594 5594 5594 5594 5593 5593 5592 5591 5590
5584 5583 5582 5582 5581 5580 5579 5578 5577 5576 5576 5576 5576 5576 5576 5576 5577 5577 5578 5578 5579 5579 5579 5579 5580 5580 5581 5582 5582 5583 5583 5584 5584 5585 5585 5586 5585 5585 5585 5584 5583 5583 5582
5577 5576 5575 5574 5573 5572 5571 5570 5569 5568 5567 5567 5566 5566 5566 5566 5566 5567 5568 5568 5569 5569 5570 5571 5571 5571 5572 5573 5574 5574 5575 5576 5576 5576 5577 5577 5577 5576 5576 5576 5575 5575 5575
5569 5568 5567 5566 5565 5564 5563 5562 5561 5559 5558 5557 5557 5557 5556 5556 5556 5557 5557 5558 5559 5560 5561 5562 5562 5563 5563 5564 5565 5566 5566 5566 5567 5568 5568 5568 5568 5568 5568 5567 5566 5566 5566
5562 5561 5559 5558 5557 5556 5555 5554 5552 5551 5549 5549 5548 5548 5547 5547 5547 5547 5548 5548 5549 5550 5551 5552 5553 5554 5555 5556 5557 5557 5557 5558 5558 5559 5559 5559 5559 5558 5558 5558 5558 5558 5557
5554 5553 5552 5551 5550 5548 5546 5545 5543 5542 5541 5540 5539 5538 5538 5538 5538 5538 5539 5539 5540 5542 5543 5544 5545 5546 5547 5547 5548 5549 5549 5549 5549 5550 5550 5550 5550 5550 5550 5550 5549 5550 5549
5547 5545 5544 5543 5541 5540 5538 5536 5535 5533 5532 5531 5531 5530 5530 5530 5530 5530 5531 5531 5533 5534 5534 5535 5536 5537 5538 5539 5540 5541 5541 5542 5542 5541 5541 5541 5541 5542 5541 5541 5541 5541 5540
5539 5538 5536 5535 5533 5531 5530 5528 5527 5525 5525 5524 5524 5523 5523 5522 5523 5523 5524 5524 5525 5525 5526 5527 5528 5529 5530 5531 5532 5533 5534 5534 5534 5534 5534 5533 5533 5533 5533 5533 5533 5533 5532
5532 5531 5529 5527 5525 5523 5522 5520 5519 5518 5517 5517 5516 5516 5515 5515 5515 5516 5516 5517 5517 5518 5519 5519 5520 5521 5523 5524 5525 5526 5526 5526 5526 5526 5526 5526 5526 5526 5526 5526 5526 5525 5525
5526 5523 5522 5520 5518 5516 5515 5513 5512 5511 5510 5510 5509 5508 5508 5509 5509 5509 5509 5510 5510 5510 5511 5512 5513 5514 5515 5516 5517 5518 5518 5519 5519 5519 5519 5519 5519 5518 5518 5519 5519 5519 5518
5519 5517 5515 5513 5511 5509 5508 5506 5505 5504 5503 5503 5502 5502 5502 5502 5502 5502 5502 5502 5503 5503 5504 5505 5505 5506 5507 5508 5509 5510 5511 5512 5512 5512 5512 5512 5512 5512 5512 5512 5512 5512 5512
5513 5511 5509 5507 5505 5503 5502 5500 5499 5498 5497 5497 5496 5496 5496 5496 5496 5496 5495 5496 5496 5496 5497 5497 5498 5498 5499 5500 5501 5503 5504 5505 5505 5505 5505 5505 5505 5505 5506 5506 5506 5506 5506
5507 5505 5503 5501 5499 5497 5496 5494 5493 5492 5491 5491 5490 5490 5490 5490 5490 5490 5490 5490 5490 5490 5490 5490 5491 5491 5492 5493 5495 5496 5497 5498 5498 5498 5499 5499 5499 5499 5500 5500 5500 5500 5500
5502 5500 5498 5496 5494 5492 5491 5489 5488 5486 5485 5485 5485 5484 5484 5484 5484 5484 5484 5484 5484 5483 5483 5483 5484 5485 5486 5487 5489 5490 5491 5491 5492 5492 5493 5493 5494 5494 5494 5494 5495 5495 5494
5497 5495 5493 5491 5489 5487 5485 5484 5483 5481 5480 5479 5479 5479 5479 5479 5478 5478 5478 5478 5478 5477 5477 5478 5478 5479 5481 5482 5483 5484 5484 5485 5486 5486 5487 5488 5488 5489 5489 5489 5489 5489 5489
5491 5489 5487 5486 5484 5482 5480 5479 5477 5476 5475 5474 5474 5474 5473 5473 5473 5473 5472 5472 5472 5472 5471 5472 5473 5474 5475 5476 5477 5478 5479 5480 5480 5481 5482 5482 5483 5484 5484 5484 5484 5484 5484
5486 5484 5482 5480 5478 5477 5475 5474 5473 5472 5471 5470 5469 5469 5468 5468 5468 5467 5467 5466 5466 5466 5466 5467 5467 5468 5469 5471 5472 5473 5474 5474 5475 5476 5476 5477 5478 5478 5479 5479 5479 5479 5478
5480 5479 5477 5475 5473 5472 5470 5469 5468 5467 5466 5465 5464 5464 5463 5463 5462 5462 5461 5461 5460 5460 5461 5461 5462 5463 5464 5465 5466 5467 5468 5469 5470 5470 5471 5472 5472 5472 5473 5473 5473 5473 5473
5475 5473 5472 5470 5468 5467 5466 5465 5464 5463 5462 5461 5460 5459 5458 5457 5457 5456 5456 5455 5455 5455 5455 5455 5456 5457 5458 5458 5460 5461 5462 5463 5464 5465 5465 5466 5466 5467 5467 5467 5467 5467 5467
5469 5468 5466 5465 5463 5461 5460 5459 5458 5458 5457 5456 5455 5454 5453 5452 5451 5451 5450 5450 5450 5449 5449 5450 5450 5451 5452 5453 5454 5455 5456 5457 5458 5458 5459 5460 5460 5460 5461 5461 5461 5461 5461
5463 5462 5460 5458 5457 5456 5454 5453 5453 5452 5451 5450 5449 5448 5448 5447 5446 5446 5445 5445 5444 5444 5444 5444 5445 5445 5446 5447 5448 5449 5450 5450 5451 5452 5453 5453 5454 5454 5454 5454 5454 5454 5454
5456 5455 5453 5452 5450 5449 5448 5447 5446 5445 5445 5444 5443 5443 5442 5441 5441 5440 5440 5439 5439 5439 5439 5439 5440 5440 5440 5441 5442 5443 5443 5444 5445 5446 5446 5447 5447 5448 5448 5448 5448 5448 5448
5449 5448 5446 5445 5443 5442 5441 5440 5440 5439 5439 5438 5437 5437 5436 5436 5435 5435 5434 5434 5434 5434 5434 5434 5434 5434 5435 5435 5436 5436 5437 5438 5438 5439 5439 5440 5440 5441 5441 5441 5441 5442 5442